sat.trackr.live / text

‹ back to catalog

STARLINK-32003

NORAD 60097 · 2024-117G

PAYLOAD ACTIVE UNKNOWN

§ Identity

Operator
Country
US
Launch date
2024-06-23
Launch site
AFETR
Launch vehicle
Mass (kg)
RCS (m²)

Purposes: comms

External: N2YO · Heavens-Above · Gunter

§ Orbital elements

Epoch: 2026-09-21T06:15:45.717984Z

Period
93.85 min
Inclination
53.1590°
Eccentricity
0.0001427
Mean motion
15.34392174 rev/d
Perigee alt
461.8 km
Apogee alt
463.7 km
Semi-major
6,840.9 km
B*
1.9874e-5
RAAN
206.2815°
Arg perigee
86.2281°
Mean anomaly
273.8885°
Rev number
12,686

§ Raw data

STARLINK-320031 60097U 24117G   26264.26094581  .00000295  00000+0  19874-4 0  99902 60097  53.1590 206.2815 0001427  86.2281 273.8885 15.34392174126865

JSON: /api/v1/satellites/60097 · /tle

For live sub-satellite position, see the globe view (requires WebGL).

§ Visibility from observer

Set your observer location to see the next 7 days of passes ≥ 10°. The values pass through the URL so the page stays shareable.

No JS? Fill the form by hand. The geolocation button needs JavaScript.